NN5DX-12 Weather Reports


Display with metric or nautical units.
time (UTC)temp
F
wind
direction
speed
MPH
gust
MPH
rain 1hr
in
rain 24hr
in
rain mn
in
humidity
%
barometer
mb
20210620102016 56 0.0 0.0 0.00 0.29 0.00 41 1020.9
20210620101016 55 0.0 0.0 0.00 0.29 0.00 47 1021.1
20210620100016 55 0.0 0.0 0.00 0.29 0.00 50 1021.2
20210620095017 55 0.0 0.0 0.00 0.29 0.00 49 1021.7
20210620094016 56 0.0 0.0 0.00 0.29 0.00 46 1021.2
20210620093016 55 0.0 0.0 0.00 0.29 0.00 47 1021.1
20210620092016 56 0.0 0.0 0.00 0.29 0.00 46 1020.5
20210620091016 56 0.0 0.0 0.00 0.29 0.00 44 1020.6
20210620090017 57 0.0 0.0 0.00 0.29 0.00 42 1020.9
20210620085016 57 0.0 0.0 0.00 0.29 0.00 44 1021.1
20210620084016 55 0.0 0.0 0.00 0.29 0.00 44 1020.4
20210620083016 54 0.0 0.0 0.00 0.29 0.00 47 1019.8
20210620082016 54 0.0 0.0 0.00 0.29 0.00 46 1019.9
20210620081016 55 0.0 0.0 0.00 0.29 0.00 48 1020.0
20210620080016 55 0.0 0.0 0.00 0.29 0.00 46 1020.4
20210620075016 55 0.0 0.0 0.00 0.29 0.00 52 1020.5
20210620074016 56 0.0 0.0 0.00 0.29 0.00 45 1019.7
20210620073016 56 0.0 0.0 0.00 0.29 0.00 43 1019.2
20210620072016 55 0.0 0.0 0.00 0.29 0.00 50 1018.2
20210620071016 55 0.0 0.0 0.00 0.29 0.00 47 1017.6
20210620070016 55 0.0 0.0 0.00 0.29 0.00 52 1018.0
20210620065016 54 0.0 0.0 0.00 0.29 0.00 51 1019.0
20210620064016 55 0.0 0.0 0.00 0.29 0.00 52 1020.6
20210620063016 55 0.0 0.0 0.00 0.29 0.00 51 1021.1
20210620062016 55 0.0 0.0 0.00 0.29 0.00 54 1021.7
20210620061016 54 0.0 0.0 0.00 0.29 0.00 56 1021.8
20210620060016 54 0.0 0.0 0.00 0.29 0.29 52 1022.3
20210620055016 55 0.0 0.0 0.00 0.29 0.29 53 1022.3
20210620054016 55 0.0 0.0 0.00 0.29 0.29 55 1021.7
20210620053017 56 0.0 0.0 0.00 0.29 0.29 52 1022.2
20210620052016 56 0.0 0.0 0.00 0.29 0.29 51 1022.3
20210620051016 56 0.0 0.0 0.00 0.29 0.29 50 1022.8
20210620050016 57 0.0 0.0 0.00 0.29 0.29 49 1022.7
20210620045016 58 0.0 0.0 0.00 0.29 0.29 48 1022.8
20210620044016 59 0.0 0.0 0.00 0.29 0.29 47 1022.7
20210620043017 60 0.0 0.0 0.00 0.29 0.29 44 1023.2
20210620042016 61 0.0 1.0 0.00 0.29 0.29 44 1023.1
20210620041016 61 0.0 1.0 0.00 0.29 0.29 41 1022.9
20210620040016 61 0.0 1.0 0.00 0.29 0.29 46 1022.9
20210620035016 62 0.0 1.0 0.00 0.29 0.29 39 1022.4
20210620034016 63 0.0 3.0 0.00 0.29 0.29 39 1021.7
20210620033016 63 0.0 0.0 0.00 0.29 0.29 40 1021.1
20210620032016 62 293 1.0 4.0 0.00 0.29 0.29 39 1020.5
20210620031016 62 0.0 1.0 0.00 0.29 0.29 42 1020.6
20210620030016 62 0.0 1.0 0.00 0.29 0.29 43 1020.0
20210620025016 62 0.0 1.0 0.00 0.29 0.29 49 1020.2
20210620024016 62 0.0 1.0 0.00 0.29 0.29 47 1020.3
20210620023015 62 0.0 1.0 0.00 0.29 0.29 48 1020.4
20210620022016 63 0.0 0.0 0.00 0.29 0.29 52 1020.7
20210620021016 64 0.0 0.0 0.00 0.29 0.29 46 1020.5
20210620020016 65 0.0 3.0 0.00 0.29 0.29 43 1019.9
20210620015016 65 0.0 4.0 0.00 0.29 0.29 44 1019.9
20210620014015 65 0.0 2.0 0.00 0.29 0.29 44 1020.4
20210620013015 64 225 1.0 5.0 0.00 0.29 0.29 46 1020.1
20210620012015 63 0.0 5.0 0.00 0.29 0.29 49 1019.3
20210620011015 62 0.0 4.0 0.00 0.29 0.29 56 1018.7
20210620010016 60 0.0 2.0 0.00 0.29 0.29 67 1018.0
20210620005015 60 0.0 1.0 0.00 0.29 0.29 70 1017.3
20210620004016 59 0.0 1.0 0.00 0.29 0.29 70 1017.0
20210620003016 59 0.0 2.0 0.00 0.29 0.29 73 1016.7
20210620002016 59 0.0 1.0 0.00 0.29 0.29 72 1016.7
20210620001016 59 0.0 1.0 0.00 0.29 0.29 71 1016.9
20210620000016 59 0.0 1.0 0.06 0.30 0.29 75 1017.2
20210619235016 58 0.0 3.0 0.23 0.30 0.29 72 1016.8
20210619234016 58 0.0 4.0 0.23 0.30 0.29 73 1017.0
20210619233015 57 293 1.0 3.0 0.23 0.30 0.29 74 1017.7
20210619232019 57 270 1.0 7.0 0.23 0.30 0.29 69 1018.1
20210619231015 58 315 2.0 8.0 0.23 0.30 0.29 72 1018.8
20210619230016 63 315 1.0 6.0 0.17 0.24 0.23 71 1021.0
20210619225016 69 293 1.0 4.0 0.00 0.07 0.06 47 1021.2
20210619224016 70 315 1.0 5.0 0.00 0.07 0.06 43 1020.7
20210619223016 71 0.0 1.0 0.00 0.07 0.06 40 1020.7
20210619222015 71 90 2.0 6.0 0.00 0.07 0.06 39 1020.2
20210619221016 71 315 1.0 4.0 0.00 0.07 0.06 38 1020.0
20210619220015 72 315 2.0 10.0 0.00 0.07 0.06 37 1020.2
20210619215015 74 90 1.0 4.0 0.00 0.07 0.06 39 1020.9
20210619214015 73 113 2.0 6.0 0.00 0.07 0.06 40 1020.4
20210619213015 71 90 2.0 5.0 0.00 0.07 0.06 39 1020.8
20210619212015 70 135 3.0 6.0 0.00 0.07 0.06 40 1021.1
20210619211015 69 113 3.0 6.0 0.00 0.07 0.06 41 1021.2
20210619210015 69 113 2.0 7.0 0.00 0.07 0.06 41 1021.3
20210619205015 69 68 4.0 7.0 0.00 0.07 0.06 45 1021.6
20210619204015 69 113 4.0 9.0 0.00 0.07 0.06 47 1021.6
20210619203016 69 113 1.0 4.0 0.00 0.07 0.06 48 1021.7
20210619202015 69 113 4.0 8.0 0.00 0.07 0.06 52 1021.5
20210619201015 68 113 3.0 6.0 0.00 0.07 0.06 52 1021.6
20210619200015 69 113 3.0 7.0 0.00 0.07 0.06 55 1022.1
20210619195015 69 90 1.0 3.0 0.01 0.07 0.06 44 1021.9
20210619194015 66 0.0 3.0 0.06 0.07 0.06 58 1021.4
20210619193015 65 293 1.0 4.0 0.06 0.07 0.06 57 1020.9
20210619192015 62 315 1.0 5.0 0.06 0.07 0.06 66 1019.8
20210619191015 60 0.0 1.0 0.06 0.07 0.06 82 1019.9
20210619190016 62 0.0 0.0 0.06 0.07 0.06 79 1020.6
20210619185015 66 158 1.0 5.0 0.05 0.06 0.05 53 1021.1
20210619184015 72 113 2.0 5.0 0.00 0.01 0.00 35 1022.5
20210619183015 74 135 1.0 4.0 0.00 0.01 0.00 28 1023.0
20210619182015 76 270 1.0 3.0 0.00 0.01 0.00 27 1023.4
20210619181015 77 225 1.0 4.0 0.00 0.01 0.00 26 1023.5
20210619180015 78 0.0 4.0 0.00 0.01 0.00 24 1024.0
20210619175015 77 0.0 2.0 0.00 0.01 0.00 25 1024.1
20210619174015 76 338 1.0 2.0 0.00 0.01 0.00 27 1023.8
20210619173017 77 0.0 2.0 0.00 0.01 0.00 28 1024.5
20210619172017 78 0.0 3.0 0.00 0.01 0.00 26 1024.3
20210619171017 78 0.0 4.0 0.00 0.01 0.00 26 1025.0
20210619170017 78 270 1.0 4.0 0.00 0.01 0.00 25 1025.0
20210619165017 77 68 1.0 3.0 0.00 0.01 0.00 28 1025.6
20210619164017 77 45 1.0 3.0 0.00 0.01 0.00 26 1025.4
20210619163017 77 135 1.0 4.0 0.00 0.01 0.00 26 1025.9
20210619162017 77 23 2.0 7.0 0.00 0.01 0.00 26 1025.9
20210619161017 76 315 2.0 6.0 0.00 0.01 0.00 27 1025.5
20210619160017 76 135 1.0 4.0 0.00 0.01 0.00 27 1025.4
20210619155017 75 135 1.0 3.0 0.00 0.01 0.00 34 1025.9
20210619154017 72 158 1.0 3.0 0.00 0.01 0.00 37 1025.4
20210619153017 69 0.0 2.0 0.00 0.01 0.00 39 1024.2
20210619152017 68 0.0 1.0 0.00 0.01 0.00 56 1024.9
20210619151017 68 0.0 1.0 0.00 0.01 0.00 56 1025.0
20210619150018 67 0.0 0.0 0.00 0.01 0.00 55 1025.1
20210619145017 67 0.0 0.0 0.00 0.01 0.00 52 1025.1
20210619144017 67 0.0 0.0 0.00 0.01 0.00 49 1024.9
20210619143017 66 0.0 0.0 0.00 0.01 0.00 51 1024.5
20210619142017 65 0.0 0.0 0.00 0.01 0.00 52 1024.5
20210619141017 64 0.0 0.0 0.00 0.01 0.00 58 1024.2
20210619140016 63 0.0 0.0 0.00 0.01 0.00 59 1024.1
20210619135017 62 0.0 0.0 0.00 0.01 0.00 60 1023.5
20210619134017 61 0.0 0.0 0.00 0.01 0.00 55 1023.3
20210619133016 60 0.0 0.0 0.00 0.01 0.00 59 1023.5
20210619132017 59 0.0 0.0 0.00 0.01 0.00 54 1023.3
20210619131017 59 0.0 0.0 0.00 0.01 0.00 52 1023.1
20210619130017 58 0.0 1.0 0.00 0.01 0.00 55 1023.2
20210619125017 58 0.0 0.0 0.00 0.01 0.00 54 1022.7
20210619124017 57 0.0 0.0 0.00 0.01 0.00 52 1023.0
20210619123017 57 0.0 0.0 0.00 0.01 0.00 52 1023.0
20210619122016 56 0.0 0.0 0.00 0.01 0.00 52 1022.9
20210619121016 55 0.0 0.0 0.00 0.01 0.00 50 1022.8
20210619120017 55 0.0 1.0 0.00 0.01 0.00 53 1022.7
20210619115016 55 0.0 0.0 0.00 0.01 0.00 51 1022.7
20210619114016 55 0.0 0.0 0.00 0.01 0.00 51 1022.7
20210619113017 55 0.0 0.0 0.00 0.01 0.00 50 1022.7
20210619112017 55 0.0 0.0 0.00 0.01 0.00 50 1022.5
20210619111016 55 0.0 0.0 0.00 0.01 0.00 50 1022.5
20210619110016 55 0.0 1.0 0.00 0.01 0.00 50 1021.9
20210619105016 55 0.0 0.0 0.00 0.01 0.00 50 1021.9
20210619104016 55 0.0 0.0 0.00 0.01 0.00 49 1021.8
20210619103016 55 0.0 0.0 0.00 0.01 0.00 51 1021.8